Weather History for Baton Rouge, LA

Change the Weather History Date:

Monday, June 11, 2012

  Actual Average Record
Temperature  
Mean Temperature 84 °F 81 °F  
Max Temperature 92 °F 91 °F 98 °F (1953)
Min Temperature 76 °F 71 °F 59 °F (1955)
Degree Days  
Heating Degree Days 0 0  
Month to date heating degree days 0 0  
Since 1 June heating degree days 0 0  
Since 1 July heating degree days 1130 1555  
Cooling Degree Days 19 16  
Month to date cooling degree days 141 165  
Year to date cooling degree days 954 730  
Since 1 June cooling degree days 141 165  
Growing Degree Days 33 (Base 50)    
Moisture  
Dew Point 76 °F    
Average Humidity 78    
Maximum Humidity 97    
Minimum Humidity 59    
Precipitation  
Precipitation 0.00 in 0.20 in 2.13 in (1992)
Month to date precipitation 1.83 2.08  
Year to date precipitation 27.60 26.60  
Snow  
Snow 0.00 in - - ()
Month to date snowfall 0.0  
Since 1 June snowfall 0.0  
Since 1 July snowfall 0.0  
Snow Depth 0.00 in    
Sea Level Pressure  
Sea Level Pressure 29.98 in    
Wind  
Wind Speed 10 mph (South)    
Max Wind Speed 18 mph    
Max Gust Speed 25 mph    
Visibility 10 miles    
Events      
T = Trace of Precipitation, MM = Missing Value Source: NWS Daily Summary

Daily Weather History Graph

Daily Weather History Graph

Search for Another Location

Airport:

Trip Planner

Search our weather history database for the weather conditions in past years. The results will help you decide how hot, cold, wet, or windy it might be!

Date:

Astronomy

Jun. 11, 2012 Rise Set
Actual Time 6:01 AM CDT 8:07 PM CDT
Civil Twilight 5:34 AM CDT 8:34 PM CDT
Nautical Twilight 5:00 AM CDT 9:08 PM CDT
Astronomical Twilight 4:24 AM CDT 9:44 PM CDT
Moon 12:54 AM CDT (6/11) 1:21 PM CDT (6/11)
Length of Visible Light 15h 00m
Length of Day
14h 05m
Waning Gibbous, 47% of the Moon is Illuminated
Jun 11
Waning Gibbous
Jun 19
New
Jun 26
First Quarter
Jul 3
Full
Jul 10
Last Quarter

Hourly Weather History & Observations

Time (CDT) Temp. Heat Index Dew Point Humidity Pressure Visibility Wind Dir Wind Speed Gust Speed Precip Events Conditions
12:53 AM 75.9 °F - 73.9 °F 94% 29.93 in 10.0 mi Calm Calm - N/A   Partly Cloudy
1:06 AM 75.2 °F - 75.2 °F 100% 29.93 in 10.0 mi SE 3.5 mph - N/A   Mostly Cloudy
1:21 AM 75.2 °F - 75.2 °F 100% 29.93 in 10.0 mi SE 4.6 mph - N/A   Overcast
1:53 AM 78.1 °F - 75.9 °F 93% 29.94 in 9.0 mi SSE 6.9 mph - N/A   Overcast
2:53 AM 78.1 °F - 75.9 °F 93% 29.93 in 9.0 mi SSE 6.9 mph - N/A   Overcast
3:53 AM 78.1 °F - 77.0 °F 96% 29.94 in 9.0 mi North - - N/A   Overcast
4:10 AM 78.8 °F - 77.0 °F 94% 29.94 in 10.0 mi South 8.1 mph - N/A   Overcast
4:27 AM 78.8 °F - 77.0 °F 94% 29.94 in 10.0 mi SSE 11.5 mph - N/A   Overcast
4:53 AM 79.0 °F - 77.0 °F 94% 29.95 in 10.0 mi SSE 6.9 mph - N/A   Overcast
5:21 AM 78.8 °F - 77.0 °F 94% 29.96 in 10.0 mi South 6.9 mph - N/A   Overcast
5:38 AM 78.8 °F - 77.0 °F 94% 29.96 in 10.0 mi SSW 6.9 mph - N/A   Overcast
5:53 AM 79.0 °F - 77.0 °F 94% 29.96 in 9.0 mi South 6.9 mph - N/A   Overcast
6:53 AM 80.1 °F 85.8 °F 77.0 °F 90% 29.98 in 8.0 mi South 6.9 mph - N/A   Mostly Cloudy
7:53 AM 81.0 °F 88.6 °F 78.1 °F 91% 30.00 in 8.0 mi SSW 6.9 mph - N/A   Mostly Cloudy
8:53 AM 82.0 °F 91.0 °F 78.1 °F 88% 30.01 in 6.0 mi SSW 6.9 mph - N/A   Overcast
9:53 AM 82.9 °F 91.8 °F 77.0 °F 82% 30.01 in 6.0 mi South 6.9 mph - N/A   Haze
10:53 AM 87.1 °F 98.8 °F 77.0 °F 72% 30.02 in 8.0 mi South 11.5 mph - N/A   Overcast
11:53 AM 88.0 °F 98.5 °F 75.9 °F 67% 30.01 in 10.0 mi South 12.7 mph - N/A   Mostly Cloudy
12:53 PM 90.0 °F 101.3 °F 75.9 °F 63% 30.01 in 10.0 mi SSW 13.8 mph - N/A   Mostly Cloudy
1:53 PM 90.0 °F 99.0 °F 73.9 °F 59% 29.99 in 10.0 mi SSW 17.3 mph - N/A   Mostly Cloudy
2:53 PM 91.0 °F 101.6 °F 75.0 °F 59% 29.99 in 10.0 mi SW 11.5 mph 20.7 mph N/A   Mostly Cloudy
3:00 PM 91.4 °F 102.5 °F 75.2 °F 59% 29.99 in 10.0 mi SW 12.7 mph - N/A   Scattered Clouds
3:53 PM 90.0 °F 100.2 °F 75.0 °F 61% 29.98 in 10.0 mi SW 15.0 mph - N/A   Mostly Cloudy
4:53 PM 91.0 °F 102.9 °F 75.9 °F 61% 29.98 in 10.0 mi SSW 13.8 mph - N/A   Scattered Clouds
5:53 PM 89.1 °F 99.1 °F 75.0 °F 63% 29.99 in 10.0 mi South 13.8 mph - N/A   Mostly Cloudy
6:53 PM 87.1 °F 96.3 °F 75.0 °F 67% 29.99 in 10.0 mi SSW 11.5 mph - N/A   Overcast
7:27 PM 86.0 °F 95.1 °F 75.2 °F 70% 29.99 in 10.0 mi SSW 11.5 mph - N/A   Mostly Cloudy
7:34 PM 84.2 °F 92.3 °F 75.2 °F 74% 29.99 in 10.0 mi SSW 10.4 mph - N/A   Partly Cloudy
7:53 PM 84.9 °F 93.3 °F 75.0 °F 72% 29.98 in 10.0 mi South 13.8 mph - N/A   Partly Cloudy
7:59 PM - - - N/A% - - North - - N/A   Unknown
8:53 PM 82.9 °F 90.2 °F 75.0 °F 77% 30.00 in 10.0 mi SSW 10.4 mph - N/A   Partly Cloudy
9:33 PM 82.4 °F 89.5 °F 75.2 °F 79% 29.98 in 10.0 mi South 12.7 mph - N/A   Mostly Cloudy
9:53 PM 82.0 °F 89.4 °F 75.9 °F 82% 29.97 in 10.0 mi SSW 10.4 mph - N/A   Partly Cloudy
10:53 PM 81.0 °F 87.3 °F 75.9 °F 85% 30.02 in 10.0 mi South 6.9 mph - N/A   Partly Cloudy
11:53 PM 80.1 °F 85.4 °F 75.9 °F 87% 30.09 in 10.0 mi NE 3.5 mph - N/A   Overcast